{"data":{"norad_id":66414,"intl_designator":"2025-258C","name":"HULIANWANG DIGUI-98","alt_names":[],"object_type":"PAYLOAD","status":"ACTIVE","operator":null,"country":"PRC","launch_date":"2025-11-10","launch_site_code":"WSC","launch_vehicle":null,"mission":null,"orbit_class":"UNKNOWN","rcs_meters":null,"size_class":null,"mass_kg":null,"dimensions":null,"purposes":[],"wikipedia_slug":null,"has_3d_model":false,"image_url":null,"decayed_at":null,"tle_current":{"epoch":"2026-09-20T20:36:57.196512Z","epoch_age_seconds":96977,"freshness":"FRESH","line1":"1 66414U 25258C   26263.85899533 -.00000083  00000+0  89280-4 0  9994","line2":"2 66414  50.0058 312.7439 0000179  68.5285 291.5606 13.29327125 42450","mean_motion":13.29327125,"eccentricity":1.79e-5,"inclination_deg":50.0058,"raan_deg":312.7439,"arg_perigee_deg":68.5285,"mean_anomaly_deg":291.5606,"bstar":8.928e-5,"rev_number":4245,"period_min":108.32548083302,"perigee_km":1149.1675837416,"apogee_km":1149.4370660695,"semimajor_km":7527.4393249056,"source":"CELESTRAK","updated_at":"2026-09-21T09:00:15.963124Z"}}}